Regional Weather Roundup
Issued by NWS

Home | Current Version | Previous Version | Text Only | Print | Product List | Glossary Off
Versions: 1 2 3 4 5 6 7 8 9 10 11 12 13 14 15 16 17 18 19 20 21 22 23 24 25 26 27 28 29 30 31 32 33 34 35 36 37 38 39 40 41 42 43 44 45 46 47 48 49 50

000
ASUS43 KDTX 020010
RWRMI
MICHIGAN HOURLY REGIONAL WEATHER ROUNDUP
NATIONAL WEATHER SERVICE DETROIT/PONTIAC MI
800 PM EDT SAT AUG 01 2015

NOTE: "FAIR" INDICATES FEW OR NO CLOUDS BELOW 12,000 FEET WITH NO
SIGNIFICANT WEATHER AND/OR OBSTRUCTION TO VISIBILITY.

MIZ047>049-052>055-059>063-066>070-074>076-081>083-020100-
SOUTHEAST LOWER MICHIGAN

CITY           SKY/WX    TMP DP  RH WIND       PRES   REMARKS
ADRIAN         CLEAR     77  54  44 W10       29.90F
6HR MIN TEMP:  77; 6HR MAX TEMP:  82;

ALMA           CLEAR     76  48  36 W7        29.87R
ANN ARBOR      CLEAR     77  53  43 W7        29.88S
BAD AXE        CLEAR     75  55  48 W5        29.83S
6HR MIN TEMP:  71; 6HR MAX TEMP:  79;

CARO           CLEAR     77  51  39 W9        29.83S
DETROIT CITY   CLEAR     81  47  30 W10G22    29.86R
6HR MIN TEMP:  79; 6HR MAX TEMP:  84;

DETROIT        PTCLDY    80  48  32 W12       29.87S
6HR MIN TEMP:  80; 6HR MAX TEMP:  85;

FLINT          CLEAR     79  48  33 W14       29.86S
6HR MIN TEMP:  78; 6HR MAX TEMP:  85;

GROSSE ILE     CLEAR     81  46  30 W9        29.86S
HILLSDALE      PTCLDY    75  54  47 W7        29.93S
6HR MIN TEMP:  75; 6HR MAX TEMP:  82;

HOWELL         CLEAR     77  46  33 W7        29.88S

CITY           SKY/WX    TMP DP  RH WIND       PRES   REMARKS
JACKSON        CLEAR     75  55  49 W7        29.90S
6HR MIN TEMP:  75; 6HR MAX TEMP:  81;

LAMBERTVILLE   CLEAR     80  54  41 W7        29.90S
6HR MIN TEMP:  79; 6HR MAX TEMP:  83;

LANSING        CLEAR     77  49  37 W13       29.89S
6HR MIN TEMP:  77; 6HR MAX TEMP:  83;

LAPEER         FAIR      78  48  34 W6        29.86R
MASON          CLEAR     75  49  38 W13G18    29.90R
MONROE         CLEAR     78  54  43 W6        29.87S
MT. CLEMENS    PTCLDY    80  47  31 W10       29.84R
6HR MIN TEMP:  78; 6HR MAX TEMP:  83; 6HR PCP: TRACE;

PONTIAC        CLEAR     77  46  33 W12       29.87R
6HR MIN TEMP:  77; 6HR MAX TEMP:  83;

PORT HOPE        N/A     77  57  50 SW5       29.80F
6HR MIN TEMP:  73; 6HR MAX TEMP:  80;

PORT HURON     CLEAR     73  61  64 CALM      29.85R
TRI CITIES     CLEAR     78  50  37 W14       29.85R
6HR MIN TEMP:  78; 6HR MAX TEMP:  84;

MIDLAND        FAIR      79  47  32 W10       29.83S
6HR MIN TEMP:  79; 6HR MAX TEMP:  84;

TROY           CLEAR     81  43  26 W13G21    29.88R
SAGINAW HB     CLEAR     79  48  34 W10G18    29.84R
$$
MIZ043>046-050>051-056>058-064>065-071>073-077>080-020100-
SOUTHWEST LOWER MICHIGAN

CITY           SKY/WX    TMP DP  RH WIND       PRES   REMARKS
BATTLE CREEK   MOCLDY    76  57  51 W7        29.92S
6HR MIN TEMP:  76; 6HR MAX TEMP:  84;

BENTON HARBOR  PTSUNNY   78  59  51 W3        29.89F
6HR MIN TEMP:  74; 6HR MAX TEMP:  82;

BIG RAPIDS     SUNNY     75  45  34 NW7       29.88R
6HR MIN TEMP:  75; 6HR MAX TEMP:  81;

COLDWATER      PTCLDY    73  56  55 W5        29.92F
6HR MIN TEMP:  73; 6HR MAX TEMP:  81;

FREMONT        FAIR      76  48  36 W6        29.88S
HOLLAND        PTSUNNY   75  56  51 SW3       29.90F
6HR MIN TEMP:  75; 6HR MAX TEMP:  81;

GRAND RAPIDS   MOSUNNY   79  50  36 W14       29.90S
6HR MIN TEMP:  79; 6HR MAX TEMP:  83;

IONIA          FAIR      78  49  36 W8        29.88S
6HR MIN TEMP:  78; 6HR MAX TEMP:  83;

KALAMAZOO      PTCLDY    77  55  46 W5        29.91F
6HR MIN TEMP:  77; 6HR MAX TEMP:  84;

LUDINGTON      SUNNY     76  58  53 SW7       29.87F
6HR MIN TEMP:  76; 6HR MAX TEMP:  78;

MARSHALL       MOCLDY    76  55  48 W9        29.91S
MOUNT PLEASANT CLEAR     79  47  32 W10G20    29.86R
6HR MIN TEMP:  79; 6HR MAX TEMP:  86;

MUSKEGON       MOSUNNY   76  57  51 SW8       29.89S
6HR MIN TEMP:  76; 6HR MAX TEMP:  81;

SOUTH HAVEN    PTSUNNY   77  57  49 CALM      29.90F
$$
MIZ016>042-020100-
NORTHERN LOWER MICHIGAN

CITY           SKY/WX    TMP DP  RH WIND       PRES   REMARKS
ALPENA         CLEAR     74  57  55 E5        29.82S
6HR MIN TEMP:  72; 6HR MAX TEMP:  82; 6HR PCP: TRACE;

BEAVER ISLAND  PTSUNNY   72  57  60 SW9       29.80F
6HR MIN TEMP:  71; 6HR MAX TEMP:  75;

BELLAIRE       SUNNY     76  52  42 W3        29.83S
6HR MIN TEMP:  76; 6HR MAX TEMP:  78;

CADILLAC       SUNNY     74  51  44 W10G16    29.88S
CHARLEVOIX     SUNNY     74  55  50 SW8       29.85S
FRANKFORT      SUNNY     73  59  61 SW6       29.85S
GAYLORD        CLEAR     73  51  46 W12       29.85F
6HR MIN TEMP:  73; 6HR MAX TEMP:  78;

GRAYLING       CLEAR     74  48  40 W10       29.86S
6HR MIN TEMP:  74; 6HR MAX TEMP:  81;

HARBOR SPRINGS SUNNY     73  57  57 W3        29.82F
HOUGHTON LAKE  CLEAR     75  50  41 W14       29.86S
6HR MIN TEMP:  73; 6HR MAX TEMP:  81;

MANISTEE       SUNNY     75  54  46 SW7       29.87S
OSCODA         MOCLDY    73  63  72 CALM      29.80S
PELLSTON       MOSUNNY   74  55  51 SW7       29.82F
6HR MIN TEMP:  74; 6HR MAX TEMP:  79;

ROGERS CITY    CLEAR     71  61  70 CALM      29.82S
TRAVERSE CITY  MOSUNNY   78  51  38 W9        29.82F
6HR MIN TEMP:  78; 6HR MAX TEMP:  83;

$$
MIZ007>008-015-020100-
EASTERN UPPER MICHIGAN

CITY           SKY/WX    TMP DP  RH WIND       PRES   REMARKS
KINROSS        PTSUNNY   70  59  68 S3        29.80S
6HR MIN TEMP:  70; 6HR MAX TEMP:  75;

MACKINAC ISLAN   N/A     71  59  65 SW12G17   29.80F
NEWBERRY       MOSUNNY   71  56  59 SW8       29.79S
6HR MIN TEMP:  71; 6HR MAX TEMP:  78;

S. S. MARIE    MOSUNNY   70  53  54 W5        29.79R
6HR MIN TEMP:  70; 6HR MAX TEMP:  74;

MUNISING         N/A     73  58  59 CALM      29.78F
6HR MIN TEMP:  73; 6HR MAX TEMP:  75;

$$
MIZ004>006-011>014-085-020100-
CENTRAL UPPER MICHIGAN

CITY           SKY/WX    TMP DP  RH WIND       PRES   REMARKS
MANISTIQUE     PTSUNNY   70  59  68 SW8       29.78S
ESCANABA       SUNNY     79  46  31 W8        29.78S
6HR MIN TEMP:  77; 6HR MAX TEMP:  82;

MENOMINEE      SUNNY     79  52  38 W5        29.81F
6HR MIN TEMP:  77; 6HR MAX TEMP:  81;

SAWYER-GWINN   SUNNY     77  45  31 W15       29.80F
$$
MIZ001>003-009>011-084-020100-
WESTERN UPPER MICHIGAN

CITY           SKY/WX    TMP DP  RH WIND       PRES   REMARKS
IRON MOUNTAIN  MOSUNNY   77  51  40 W6        29.81F
6HR MIN TEMP:  75; 6HR MAX TEMP:  81;

HOUGHTON       PTSUNNY   73  49  42 W13       29.76F
6HR MIN TEMP:  72; 6HR MAX TEMP:  76;

COPPER HARBOR    N/A     74  50  42 W8G17     29.72F
6HR MIN TEMP:  70; 6HR MAX TEMP:  78;

IRONWOOD       SUNNY     77  54  44 SW9       29.77F
6HR MIN TEMP:  73; 6HR MAX TEMP:  79;

$$

ABBREVIATIONS USED IN REMARKS
   TC - TEMPERATURE IN CELSIUS
  WCI - WIND CHILL INDEX
   HX - HEAT INDEX
  VSB - VISIBILITY




USA.gov is the U.S. government's official web portal to all federal, state and local government web resources and services.